New Roads False River Regiona, LA

4:12 AM CDT on September 22, 2019 (GMT -0500)
False River

Weather History for KHZR - July, 2019

Change the Weather History Date:

Thursday, July 18, 2019

  Actual Average (KBTR) Record (KBTR)
Temperature  
Mean Temperature 78 °F -  
Max Temperature 82 °F 91 °F 99 °F (1908)
Min Temperature 73 °F 72 °F 65 °F (1967)
Cooling Degree Days 12    
Growing Degree Days 28 (Base 50)    
Moisture  
Dew Point 76 °F    
Average Humidity 95    
Maximum Humidity 100    
Minimum Humidity 84    
Precipitation  
Precipitation 0.00 in - - ()
Sea Level Pressure  
Sea Level Pressure 30.06 in    
Wind  
Wind Speed 1 mph (SSW)    
Max Wind Speed 10 mph    
Max Gust Speed -    
Visibility 8 miles    
Events Fog , Rain , Thunderstorm    
Averages and records for this station are not official NWS values.
T = Trace of Precipitation, MM = Missing Value Source: NWS Daily Summary

Daily Weather History Graph

Daily Weather History Graph

Search for Another Location

Airport or City:

Astronomy

Jul. 18, 2019 Rise Set
Actual Time 6:15 AM CDT 8:08 PM CDT
Civil Twilight 5:48 AM CDT 8:35 PM CDT
Nautical Twilight 5:15 AM CDT 9:08 PM CDT
Astronomical Twilight 4:40 AM CDT 9:43 PM CDT
Moon 9:39 PM CDT (7/18) 7:42 AM CDT (7/18)
Length of Visible Light 14h 47m
Length of Day
13h 53m
Full, 97% of the Moon is Illuminated
Jul 18
Full
Jul 24
Last Quarter
Jul 31
New
Aug 7
First Quarter
Aug 15
Full

Hourly Weather History & Observations

Time (CDT) Temp. Heat Index Dew Point Humidity Pressure Visibility Wind Dir Wind Speed Gust Speed Precip Events Conditions
12:14 AM 78.8 °F - 77.0 °F 94% 30.07 in 10.0 mi Calm Calm - N/A   Clear
1:16 AM 78.8 °F - 77.0 °F 94% 30.08 in 10.0 mi Calm Calm - N/A   Clear
1:34 AM 77.0 °F - 77.0 °F 100% 30.08 in 10.0 mi Calm Calm - N/A   Clear
1:54 AM 77.0 °F - 77.0 °F 100% 30.08 in 7.0 mi Calm Calm - N/A   Clear
2:15 AM 77.0 °F - 75.2 °F 94% 30.07 in 7.0 mi Calm Calm - N/A   Clear
2:34 AM 77.0 °F - 75.2 °F 94% 30.07 in 5.0 mi Calm Calm - N/A   Clear
2:55 AM 75.2 °F - 75.2 °F 100% 30.07 in 7.0 mi Calm Calm - N/A   Clear
3:17 AM 75.2 °F - 75.2 °F 100% 30.07 in 4.0 mi Calm Calm - N/A   Clear
3:34 AM 75.2 °F - 75.2 °F 100% 30.07 in 4.0 mi Calm Calm - N/A   Scattered Clouds
3:54 AM 75.2 °F - 75.2 °F 100% 30.07 in 0.8 mi Calm Calm - N/A   Mostly Cloudy
4:16 AM 75.2 °F - 75.2 °F 100% 30.07 in 0.5 mi Calm Calm - N/A Fog Fog
4:36 AM 75.2 °F - 75.2 °F 100% 30.07 in 0.8 mi Calm Calm - N/A Fog Fog
4:54 AM 75.2 °F - 75.2 °F 100% 30.08 in 0.2 mi Calm Calm - N/A Fog Fog
5:17 AM 75.2 °F - 73.4 °F 94% 30.08 in 0.2 mi Calm Calm - N/A Fog Fog
5:34 AM 75.2 °F - 75.2 °F 100% 30.08 in 0.5 mi Calm Calm - N/A Fog Fog
6:15 AM 75.2 °F - 73.4 °F 94% 30.08 in 1.5 mi Calm Calm - N/A   Mist
6:34 AM 73.4 °F - 73.4 °F 100% 30.09 in 0.2 mi Calm Calm - N/A Fog Fog
6:54 AM 75.2 °F - 73.4 °F 94% 30.08 in 0.2 mi Calm Calm - N/A Fog Fog
7:15 AM 77.0 °F - 75.2 °F 94% 30.08 in 1.8 mi Calm Calm - N/A   Overcast
7:34 AM 77.0 °F - 77.0 °F 100% 30.08 in 5.0 mi Calm Calm - N/A   Scattered Clouds
7:54 AM 78.8 °F - 78.8 °F 100% 30.07 in 7.0 mi South 3.5 mph - N/A   Clear
8:14 AM 78.8 °F - 78.8 °F 100% 30.08 in 10.0 mi Calm Calm - N/A   Clear
8:34 AM 80.6 °F 88.1 °F 78.8 °F 94% 30.08 in 10.0 mi South 3.5 mph - N/A   Scattered Clouds
8:54 AM 80.6 °F 88.1 °F 78.8 °F 94% 30.09 in 10.0 mi SSW 3.5 mph - N/A   Scattered Clouds
9:14 AM 82.4 °F 92.4 °F 78.8 °F 89% 30.09 in 10.0 mi Calm Calm - N/A   Scattered Clouds
10:14 AM - - - N/A% 30.09 in 10.0 mi Calm Calm - N/A   Mostly Cloudy
10:34 AM - - - N/A% 30.10 in 10.0 mi SW 3.5 mph - N/A   Mostly Cloudy
10:54 AM - - - N/A% 30.10 in 10.0 mi Calm Calm - N/A   Scattered Clouds
11:17 AM - - - N/A% 30.09 in 10.0 mi Calm Calm - N/A   Scattered Clouds
11:36 AM - - - N/A% 30.09 in 10.0 mi Calm Calm - N/A   Mostly Cloudy
11:55 AM - - - N/A% 30.09 in 10.0 mi Calm Calm - N/A   Overcast
12:16 PM - - - N/A% 30.08 in 10.0 mi West 4.6 mph - N/A   Mostly Cloudy
12:35 PM - - - N/A% 30.08 in 10.0 mi SW 3.5 mph - N/A   Mostly Cloudy
1:14 PM - - - N/A% 30.06 in 10.0 mi SE 5.8 mph - N/A   Scattered Clouds
1:34 PM - - - N/A% 30.06 in 10.0 mi SW 4.6 mph - N/A   Scattered Clouds
2:01 PM - - - N/A% 30.05 in 10.0 mi SSW 4.6 mph - N/A   Scattered Clouds
2:16 PM - - - N/A% 30.05 in 10.0 mi SSW 5.8 mph - N/A   Mostly Cloudy
2:37 PM - - - N/A% 30.04 in 10.0 mi WSW 3.5 mph - N/A   Mostly Cloudy
2:54 PM - - - N/A% 30.03 in 10.0 mi South 4.6 mph - N/A   Mostly Cloudy
3:15 PM - - - N/A% 30.03 in 10.0 mi SSW 6.9 mph - N/A   Scattered Clouds
3:34 PM - - - N/A% 30.02 in 10.0 mi SSW 4.6 mph - N/A   Clear
4:14 PM - - - N/A% 30.02 in 10.0 mi SW 10.4 mph - N/A   Scattered Clouds
4:54 PM - - - N/A% 30.02 in 10.0 mi SW 5.8 mph - N/A Rain , Thunderstorm Light Thunderstorms and Rain
5:14 PM - - - N/A% 30.01 in 10.0 mi SSW 6.9 mph - N/A   Mostly Cloudy
5:34 PM - - - N/A% 30.00 in 10.0 mi WSW 6.9 mph - N/A   Scattered Clouds
5:54 PM - - - N/A% 30.00 in 10.0 mi SW 4.6 mph - N/A Thunderstorm Scattered Clouds
6:14 PM - - - N/A% 30.00 in 10.0 mi SSW 3.5 mph - N/A   Clear
6:54 PM - - - N/A% 30.01 in 10.0 mi South 6.9 mph - N/A   Mostly Cloudy
7:16 PM - - - N/A% 30.01 in 10.0 mi South 4.6 mph - N/A Thunderstorm Scattered Clouds
7:56 PM - - - N/A% 30.02 in 10.0 mi SSW 3.5 mph - N/A   Clear
8:20 PM 80.6 °F 86.2 °F 75.2 °F 84% 30.02 in 10.0 mi Calm Calm - N/A   Clear
8:54 PM 80.6 °F 86.2 °F 75.2 °F 84% 30.02 in 10.0 mi SSW 3.5 mph - N/A   Clear
9:34 PM 80.6 °F 86.2 °F 75.2 °F 84% 30.03 in 10.0 mi South 3.5 mph - N/A   Clear
10:15 PM 80.6 °F 86.2 °F 75.2 °F 84% 30.04 in 10.0 mi South 3.5 mph - N/A   Clear
10:54 PM 80.6 °F 86.2 °F 75.2 °F 84% 30.05 in 10.0 mi South 3.5 mph - N/A   Clear
11:14 PM 78.8 °F - 77.0 °F 94% 30.05 in 10.0 mi South 3.5 mph - N/A   Clear
11:34 PM 78.8 °F - 75.2 °F 89% 30.05 in 10.0 mi Calm Calm - N/A   Clear
11:54 PM 78.8 °F - 75.2 °F 89% 30.05 in 10.0 mi Calm Calm - N/A   Clear